Simultaneous Nadir Overpasses (SNOs) Predictions

Prediction of SNOs between GOES-16 and AQUA Satellite Orbit:

Table of predicted SNOs for the next 14.0 days since TLE Epoch: 4/20/2024
Index Date Time (GOES-16) GOES-16 Lat,Lon AQUA Lat,Lon Distance(km) Time Diff (sec)
1 04/21/2024 19:01:11 0.01, -75.20 0.25, -74.03 132.60 80
2 04/22/2024 07:24:06 -0.00, -75.21 0.78, -78.94 423.75 80
3 04/24/2024 07:05:18 -0.01, -75.22 -0.07, -75.00 25.94 80
4 04/26/2024 06:49:07 -0.01, -75.23 -0.88, -71.03 476.69 80
5 04/26/2024 19:09:29 0.01, -75.23 -0.15, -75.97 83.98 80
6 04/28/2024 18:55:56 0.01, -75.24 0.71, -72.00 368.29 80
7 04/29/2024 07:16:08 -0.00, -75.25 0.33, -76.90 186.99 80
8 05/01/2024 06:57:12 -0.00, -75.26 -0.52, -72.92 266.99 80
9 05/01/2024 19:17:32 0.00, -75.26 -0.54, -77.84 292.94 80
10 05/03/2024 19:03:53 -0.00, -75.29 0.30, -73.85 163.27 80
